Regional Weather Roundup
Issued by NWS

Home | Current Version | Previous Version | Graphics & Text | Print | Product List | Glossary On
Versions: 1 2 3 4 5 6 7 8 9 10 11 12 13 14 15 16 17 18 19 20 21 22 23 24 25 26 27 28 29 30 31 32 33 34 35 36 37 38 39 40 41 42 43 44 45 46 47 48 49 50
000
ASUS43 KLMK 020710
RWRKY
KENTUCKY REGIONAL WEATHER ROUNDUP
NATIONAL WEATHER SERVICE LOUISVILLE KY
200 AM EST FRI DEC 02 2016

NOTE "FAIR" INDICATES FEW OR NO CLOUDS BELOW 12,000 FEET
WITH NO SIGNIFICANT WEATHER AND/OR OBSTRUCTIONS TO VISIBILITY.

KYZ001>023-026-027-061>063-070>075-020800-
WESTERN AND SOUTH CENTRAL KENTUCKY

CITY           SKY/WX    TMP DP  RH WIND       PRES   REMARKS
PADUCAH        CLEAR     30  26  85 CALM      30.14R
HENDERSON      CLEAR     27  23  86 CALM      30.14R
OWENSBORO      PTCLDY    29  27  92 CALM      30.14R
HOPKINSVILLE   CLEAR     32  26  80 CALM      30.14R
BOWLING GREEN  CLEAR     34  26  72 SW5       30.15R WCI  30
GLASGOW        CLEAR     29  29 100 CALM      30.14R
$$

KYZ024-025-028>034-038-045-046-053-020800-
NORTH CENTRAL KENTUCKY

CITY           SKY/WX    TMP DP  RH WIND       PRES   REMARKS
LOUISVILLE/SDF MOCLDY    35  28  75 SW6       30.12R WCI  30
LOUISVILLE/LOU PTCLDY    33  28  81 CALM      30.13R
FORT KNOX      PTCLDY    27  25  94 CALM      30.10R
$$

KYZ035>037-039>044-047>052-055>060-089>105-020800-
NORTHEAST KENTUCKY

CITY           SKY/WX    TMP DP  RH WIND       PRES   REMARKS
LEXINGTON      PTCLDY    30  25  81 S3        30.10R
COVINGTON      CLOUDY    35  29  78 W5        30.07R WCI  31
FRANKFORT      CLEAR     29  23  78 CALM      30.09S
$$

KYZ054-064>069-076>088-106>120-020800-
SOUTHEAST KENTUCKY

CITY           SKY/WX    TMP DP  RH WIND       PRES   REMARKS
JACKSON        CLEAR     34  27  75 SW3       30.08R
LONDON         CLEAR     29  25  85 CALM      30.10R
SOMERSET       PTCLDY    30  30 100 CALM      30.14R
MIDDLESBORO    CLEAR     29  29 100 CALM      30.13R FOG
MONTICELLO     SUNNY     23  21  92 W8        30.15R WCI  14
$$





USA.gov is the U.S. government's official web portal to all federal, state and local government web resources and services.